Snowfall_Accumulation
0.0 0.0 0.0 0.0 0.0 0.0 0.0 0.0 0.0 0.0 0.0 0.0 0.0 0.0 0.0 0.0 0.0 0.0 0.0 0.0 0.0 0.0 0.0 0.0 0.0 0.0 0.0 0.0 0.0 0.0 0.0 0.0 0.0 0.0 0.0 0.0 0.0 0.0 0.0 0.0 0.0 0.0 0.0 0.0
0.0 0.0 0.0 0.0 0.0 0.0 0.0 0.0 0.0 0.0 0.0 0.0 0.0 0.0 0.0 0.0 0.0 0.0 0.0 0.0 0.0 0.0 0.0 0.0 0.0 0.0 0.0 0.0 0.0 0.0 0.0 0.0 0.0 0.0 0.0 0.0 0.0 0.0 0.0 0.0 0.0 0.0 0.0 0.0
0.1 0.0 0.0 0.2 0.0 0.0 0.0 0.0 0.0 0.0 0.0 0.0 0.0 0.0 0.0 0.0 0.0 0.0 0.0 0.0 0.0 0.0 0.0 0.0 0.0 0.0 0.0 0.0 0.0 0.0 0.0 0.0 0.0 0.0 0.0 0.0 0.0 0.0 0.0 0.0 0.0 0.0 0.0 0.0
0.8 0.2 2.2 0.0 0.0 0.0 0.0 0.0 0.0 0.0 0.0 0.0 0.0 0.0 0.0 0.0 0.0 0.0 0.0 0.0 0.0 0.0 0.0 0.0 0.0 0.0 0.0 0.0 0.0 0.0 0.0 0.0 0.0 0.0 0.0 0.0 0.0 0.0 0.0 0.0 0.0 0.0 0.0 0.0
2.3 1.1 0.1 0.0 0.0 0.0 0.0 0.0 0.0 0.0 0.0 0.0 0.0 0.0 0.0 0.0 0.0 0.0 0.0 0.0 0.0 0.0 0.0 0.0 0.0 0.0 0.0 0.0 0.0 0.0 0.0 0.0 0.0 0.0 0.0 0.0 0.0 0.0 0.0 0.0 0.0 0.0 0.0 0.0
0.9 0.2 1.8 0.0 0.0 0.0 0.0 0.0 0.0 0.0 0.0 0.0 0.0 0.0 0.0 0.0 0.0 0.0 0.0 0.0 0.0 0.0 0.0 0.0 0.0 0.0 0.0 0.0 0.0 0.0 0.0 0.0 0.0 0.0 0.0 0.0 0.0 0.0 0.0 0.0 0.0 0.0 0.0 0.0
0.4 0.9 0.2 0.0 0.0 0.0 0.8 0.1 0.0 0.0 0.0 0.0 0.0 0.0 0.0 0.0 0.0 0.0 0.0 0.0 0.0 0.0 0.0 0.0 0.0 0.0 0.0 0.0 0.0 0.0 0.0 0.0 0.0 0.0 0.0 0.0 0.0 0.0 0.0 0.0 0.0 0.0 0.0 0.0
0.6 0.7 1.0 0.0 0.0 0.0 0.0 0.0 0.0 0.0 0.0 0.0 0.0 0.0 0.0 0.0 0.0 0.0 0.0 0.0 0.0 0.0 0.0 0.0 0.0 0.0 0.0 0.0 0.0 0.0 0.0 0.0 0.0 0.0 0.0 0.0 0.0 0.0 0.0 0.0 0.0 0.0 0.3 0.3
0.0 0.2 0.0 0.0 0.0 0.0 0.0 0.0 0.0 0.0 0.0 0.0 0.0 0.0 0.0 0.0 0.0 0.0 0.0 0.0 0.0 0.0 0.0 0.0 0.0 0.0 0.0 0.0 0.0 0.0 0.0 0.0 0.0 0.0 0.0 0.0 0.0 0.0 0.0 0.0 0.2 0.2 0.5 0.9
0.0 0.0 0.0 0.0 0.0 0.0 0.0 0.0 0.0 0.0 0.0 0.0 0.0 0.0 0.0 0.0 0.0 0.0 0.0 0.0 0.0 0.0 0.0 0.0 0.0 0.0 0.0 0.0 0.0 0.0 0.0 0.0 0.0 0.0 0.0 0.0 0.0 0.0 0.0 0.3 0.6 1.0 1.1 0.9
0.0 0.0 0.0 0.0 0.0 0.0 0.0 0.0 0.0 0.0 0.0 0.0 0.0 0.0 0.0 0.0 0.0 0.0 0.0 0.0 0.0 0.0 0.0 0.0 0.0 0.0 0.0 0.0 0.0 0.0 0.0 0.0 0.0 0.0 0.0 0.1 0.2 0.3 0.4 0.4 0.7 1.1 1.4 2.0
0.1 0.0 0.0 0.0 0.0 0.0 0.0 0.0 0.0 0.0 0.0 0.0 0.0 0.0 0.0 0.0 0.0 0.0 0.0 0.0 0.0 0.0 0.0 0.1 0.0 0.0 0.0 0.0 0.0 0.1 0.2 0.2 0.6 0.5 0.6 0.5 0.5 0.6 nan nan nan nan nan 2.6
0.0 0.0 0.0 0.0 0.0 0.0 0.0 0.0 0.0 0.0 0.0 0.0 0.0 0.0 0.0 0.0 0.0 nan 0.0 0.0 0.1 1.4 1.2 1.9 3.6 2.7 1.1 0.4 0.5 1.2 1.3 1.4 1.5 1.1 1.9 2.0 2.2 2.8 4.7 6.3 nan nan nan nan
0.0 0.0 0.0 0.0 0.0 0.0 0.0 0.0 0.0 0.0 0.0 0.0 0.0 0.0 0.0 0.0 0.0 0.0 0.0 0.0 0.0 0.0 0.5 0.8 1.3 3.7 4.8 4.5 4.3 6.3 6.1 1.5 5.1 6.0 6.3 7.0 7.2 7.0 5.9 6.5 7.9 5.3 nan nan
0.0 0.0 0.0 0.0 0.0 0.0 0.0 0.0 0.0 0.0 0.0 0.0 0.0 0.0 0.0 0.0 0.0 0.0 0.0 0.0 0.0 0.1 0.2 0.4 0.8 1.3 1.2 1.0 1.6 2.7 3.8 5.7 5.8 5.5 4.6 3.7 4.1 4.0 3.5 3.9 4.2 3.8 2.8 1.7
0.0 0.0 0.0 0.0 0.0 0.0 0.0 0.0 0.0 0.0 0.0 0.0 0.0 0.0 0.0 0.0 0.0 0.1 0.1 0.0 0.2 0.4 0.2 3.4 0.8 1.6 1.8 2.1 2.7 3.8 4.1 2.3 3.4 4.9 4.8 4.3 3.6 3.8 3.2 3.6 3.3 3.9 3.8 4.3
0.0 0.0 0.0 0.0 0.0 0.0 0.0 0.0 0.0 0.0 0.0 0.0 0.0 0.0 0.0 0.1 0.2 0.3 0.8 0.8 1.8 2.6 2.4 1.9 5.3 5.1 4.3 4.5 4.2 5.8 5.1 5.0 1.4 3.7 3.5 2.9 3.3 3.3 3.0 4.0 4.6 3.8 6.4 10.0
0.1 0.0 0.0 0.0 0.0 0.0 0.0 0.0 0.0 0.0 0.1 0.2 0.6 2.5 3.8 3.5 1.4 1.8 2.2 1.9 3.6 6.3 5.8 5.9 5.2 5.2 4.7 4.0 3.1 3.0 2.9 2.6 2.5 3.1 2.6 4.0 3.1 2.4 3.7 3.5 3.4 4.3 5.8 5.3
0.3 0.5 0.4 0.2 0.2 0.1 0.0 0.1 0.1 0.2 2.3 2.5 5.7 6.2 6.4 7.4 6.5 9.5 9.9 12.2 13.4 8.8 12.6 7.3 1.7 2.7 3.2 2.7 0.8 1.7 2.5 4.0 2.5 1.7 2.2 5.8 6.3 3.0 5.9 7.4 5.8 7.5 4.9 5.3
0.4 0.3 0.7 1.3 1.9 1.9 2.7 3.3 4.4 5.7 6.1 5.4 10.3 12.5 12.0 15.7 14.0 14.9 11.2 11.2 9.7 9.5 6.0 4.6 2.8 2.0 1.2 0.5 1.5 1.0 2.3 5.0 2.8 5.1 7.0 3.7 9.4 13.5 9.1 7.2 7.8 9.3 16.0 12.6
3.2 3.6 3.9 4.2 7.0 8.1 10.4 11.9 10.3 9.0 11.6 13.6 13.9 16.0 16.0 13.5 12.0 12.9 9.3 6.5 8.9 4.9 2.4 0.8 1.1 0.9 0.2 0.2 0.4 3.0 5.6 8.4 8.7 6.1 6.5 12.9 17.1 13.8 14.1 14.9 14.0 16.4 19.5 15.2
4.2 4.8 7.0 6.1 4.6 6.2 7.2 7.4 5.4 8.7 9.8 13.0 16.9 18.4 14.0 9.4 9.9 8.5 9.0 4.3 4.3 2.5 1.8 1.5 0.8 2.9 2.0 4.7 1.7 7.4 3.9 4.5 6.7 6.9 7.9 11.9 13.3 19.8 21.0 18.1 17.5 19.1 18.6 19.2
4.6 4.2 4.5 5.3 5.0 5.6 4.9 5.1 9.7 8.0 12.1 11.8 13.3 9.8 7.0 5.4 4.9 5.9 6.3 1.2 0.9 3.3 1.0 2.6 4.4 5.2 5.5 8.8 8.7 10.2 10.4 10.8 10.8 9.6 10.2 15.9 15.3 25.6 15.6 15.0 16.6 16.7 22.6 15.2
4.2 3.9 4.5 4.4 3.8 2.2 3.0 6.2 3.7 4.3 9.5 6.5 8.0 10.4 4.7 7.8 9.0 1.2 1.1 5.3 5.5 14.4 11.3 6.4 8.3 5.8 6.3 12.3 12.6 14.3 13.0 14.6 15.4 18.0 8.9 9.0 24.3 19.2 15.3 22.7 14.4 17.4 18.2 15.6
4.7 5.1 4.7 5.1 3.4 5.7 3.5 4.2 3.3 3.5 3.0 2.9 2.3 1.4 0.7 1.2 6.7 3.3 5.3 5.1 6.2 4.8 7.3 6.3 6.3 7.1 15.7 16.6 16.0 16.8 16.8 15.5 17.4 20.2 14.8 20.3 18.3 26.9 23.5 19.5 24.0 23.3 23.4 19.4
4.5 5.2 5.2 4.3 4.1 3.7 3.5 3.0 3.7 3.9 2.1 4.8 3.0 10.8 7.8 4.4 3.7 3.5 5.2 6.3 4.1 6.0 5.2 13.4 18.4 18.4 17.4 13.1 15.1 15.7 12.7 9.3 14.0 14.5 17.4 16.5 15.8 12.8 16.9 15.7 22.3 26.4 31.2 32.4
4.5 2.1 3.7 3.4 3.0 3.0 2.3 1.4 2.9 3.8 4.6 8.5 7.7 7.4 4.7 8.1 9.9 6.5 8.2 12.0 11.8 13.1 13.4 16.4 14.5 10.7 9.6 15.3 13.1 12.1 12.0 12.4 10.7 10.9 22.1 24.4 23.2 30.3 27.7 27.5 31.2 31.1 27.7 25.1
Water_Equivalent
0.00 0.00 0.00 0.00 0.00 0.00 0.00 0.00 0.01 0.00 0.00 0.00 0.00 0.00 0.00 0.00 0.00 0.00 0.00 0.00 0.00 0.00 0.00 0.00 0.00 0.00 0.00 0.00 0.00 0.00 0.00 0.00 0.00 0.00 0.00 0.00 0.00 0.00 0.00 0.00 0.00 0.00 0.00 0.00
0.00 0.00 0.00 0.00 0.00 0.00 0.00 0.00 0.00 0.00 0.00 0.00 0.00 0.00 0.00 0.00 0.00 0.00 0.00 0.00 0.00 0.00 0.00 0.00 0.00 0.00 0.00 0.00 0.00 0.00 0.00 0.00 0.00 0.00 0.00 0.00 0.00 0.00 0.00 0.00 0.00 0.00 0.00 0.00
0.03 0.00 0.00 0.05 0.00 0.00 0.00 0.00 0.00 0.00 0.00 0.00 0.00 0.00 0.00 0.00 0.00 0.00 0.00 0.00 0.00 0.00 0.00 0.00 0.00 0.00 0.00 0.00 0.00 0.00 0.00 0.00 0.00 0.00 0.00 0.00 0.00 0.00 0.00 0.00 0.00 0.00 0.00 0.00
0.22 0.06 0.43 0.01 0.00 0.00 0.00 0.00 0.00 0.00 0.00 0.00 0.00 0.00 0.00 0.00 0.00 0.00 0.00 0.00 0.00 0.00 0.00 0.00 0.00 0.00 0.00 0.00 0.00 0.00 0.00 0.00 0.00 0.00 0.00 0.00 0.00 0.00 0.00 0.00 0.00 0.00 0.00 0.00
0.56 0.26 0.02 0.00 0.00 0.00 0.00 0.00 0.00 0.00 0.00 0.00 0.00 0.00 0.00 0.00 0.00 0.00 0.00 0.00 0.00 0.00 0.00 0.00 0.00 0.00 0.00 0.00 0.00 0.00 0.00 0.00 0.00 0.00 0.00 0.00 0.00 0.00 0.00 0.00 0.00 0.00 0.00 0.00
0.21 0.04 0.42 0.00 0.00 0.00 0.00 0.00 0.00 0.00 0.00 0.00 0.00 0.00 0.00 0.00 0.00 0.00 0.00 0.00 0.00 0.00 0.00 0.00 0.00 0.00 0.00 0.00 0.00 0.00 0.00 0.00 0.00 0.00 0.00 0.00 0.00 0.00 0.00 0.00 0.00 0.00 0.00 0.00
0.13 0.23 0.07 0.00 0.00 0.00 0.18 0.01 0.00 0.00 0.00 0.00 0.00 0.00 0.00 0.00 0.00 0.00 0.00 0.00 0.00 0.00 0.00 0.00 0.00 0.00 0.00 0.00 0.00 0.00 0.00 0.00 0.00 0.00 0.00 0.00 0.00 0.00 0.00 0.00 0.00 0.00 0.00 0.00
0.16 0.17 0.25 0.00 0.00 0.00 0.01 0.00 0.00 0.00 0.00 0.00 0.00 0.00 0.00 0.00 0.00 0.00 0.00 0.00 0.00 0.00 0.00 0.00 0.00 0.00 0.00 0.00 0.00 0.00 0.00 0.00 0.00 0.00 0.00 0.00 0.00 0.00 0.00 0.00 0.00 0.01 0.07 0.08
0.01 0.05 0.00 0.00 0.00 0.00 0.00 0.00 0.00 0.00 0.00 0.00 0.00 0.00 0.00 0.00 0.00 0.00 0.00 0.00 0.00 0.00 0.00 0.00 0.00 0.00 0.00 0.00 0.00 0.00 0.00 0.00 0.00 0.00 0.00 0.00 0.00 0.00 0.00 0.00 0.07 0.04 0.12 0.22
0.00 0.00 0.00 0.00 0.00 0.00 0.00 0.00 0.00 0.00 0.00 0.00 0.00 0.00 0.00 0.00 0.00 0.00 0.00 0.00 0.00 0.00 0.00 0.00 0.00 0.00 0.00 0.00 0.00 0.00 0.00 0.00 0.00 0.00 0.00 0.00 0.00 0.00 0.02 0.09 0.18 0.21 0.24 0.19
0.00 0.00 0.00 0.00 0.00 0.00 0.00 0.00 0.00 0.00 0.00 0.00 0.00 0.00 0.00 0.00 0.00 0.00 0.00 0.00 0.00 0.00 0.00 0.00 0.00 0.00 0.00 0.00 0.00 0.00 0.00 0.00 0.00 0.01 0.01 0.02 0.04 0.05 0.10 0.08 0.17 0.22 0.27 0.36
0.03 0.00 0.00 0.00 0.00 0.00 0.00 0.00 0.00 0.00 0.00 0.00 0.00 0.00 0.00 0.00 0.00 0.00 0.00 0.00 0.00 0.00 0.00 0.01 0.00 0.00 0.00 0.00 0.00 0.01 0.03 0.04 0.13 0.12 0.12 0.07 0.07 0.09 nan nan nan nan nan 0.59
0.00 0.00 0.00 0.00 0.00 0.00 0.00 0.00 0.00 0.00 0.00 0.00 0.00 0.00 0.00 0.00 0.00 nan 0.00 0.00 0.03 0.26 0.20 0.30 0.60 0.45 0.18 0.06 0.08 0.19 0.20 0.25 0.30 0.23 0.34 0.33 0.36 0.46 0.67 0.94 nan nan nan nan
0.00 0.00 0.00 0.00 0.00 0.00 0.00 0.00 0.00 0.00 0.00 0.00 0.00 0.00 0.00 0.00 0.00 0.00 0.00 0.00 0.01 0.00 0.08 0.12 0.20 0.58 0.84 0.81 0.78 1.08 1.07 0.49 1.15 1.35 1.36 1.41 1.34 1.20 0.95 0.98 1.14 0.78 nan nan
0.00 0.00 0.00 0.00 0.00 0.00 0.00 0.00 0.00 0.00 0.00 0.00 0.00 0.00 0.00 0.00 0.00 0.00 0.00 0.00 0.01 0.03 0.05 0.08 0.14 0.20 0.22 0.17 0.26 0.43 0.66 0.95 0.98 0.92 0.80 0.67 0.73 0.69 0.60 0.65 0.66 0.58 0.45 0.31
0.00 0.00 0.00 0.00 0.00 0.00 0.00 0.00 0.00 0.00 0.00 0.00 0.00 0.00 0.00 0.00 0.00 0.01 0.01 0.00 0.04 0.07 0.03 0.63 0.13 0.21 0.30 0.37 0.45 0.55 0.59 0.63 0.60 0.75 0.75 0.72 0.63 0.65 0.54 0.59 0.54 0.62 0.58 0.62
0.00 0.00 0.00 0.00 0.00 0.00 0.00 0.00 0.00 0.01 0.00 0.00 0.00 0.00 0.01 0.02 0.02 0.04 0.08 0.10 0.31 0.43 0.38 0.26 0.61 0.61 0.54 0.56 0.53 0.72 0.62 0.63 0.48 0.54 0.53 0.49 0.59 0.58 0.50 0.66 0.73 0.61 0.99 1.61
0.02 0.01 0.00 0.00 0.00 0.00 0.00 0.00 0.00 0.00 0.01 0.02 0.09 0.51 0.73 0.64 0.16 0.21 0.26 0.26 0.51 0.78 0.61 0.62 0.57 0.59 0.53 0.45 0.35 0.38 0.40 0.38 0.42 0.55 0.47 0.74 0.56 0.46 0.65 0.58 0.56 0.67 0.90 0.86
0.06 0.10 0.09 0.04 0.03 0.01 0.01 0.01 0.02 0.03 0.43 0.42 0.94 0.88 0.94 1.07 0.73 0.97 1.03 1.56 1.73 0.89 1.19 0.74 0.57 0.40 0.31 0.30 0.13 0.28 0.46 0.81 0.50 0.33 0.44 1.84 1.14 0.55 0.94 1.19 0.94 1.23 0.77 0.79
0.07 0.05 0.11 0.20 0.27 0.25 0.34 0.43 0.64 0.72 0.77 0.70 1.46 1.71 1.32 1.86 1.72 1.86 1.34 1.15 0.89 0.93 0.58 0.44 0.28 0.19 0.12 0.08 0.46 0.21 0.52 1.09 0.58 1.07 1.36 0.70 1.62 2.24 1.44 2.28 1.19 1.49 2.61 1.99
0.48 0.56 0.57 0.59 0.91 1.20 1.53 1.68 1.30 0.95 1.23 1.68 1.81 2.07 1.94 1.56 1.52 1.79 1.11 0.65 0.74 0.46 0.23 0.20 0.15 0.15 0.06 0.06 0.12 0.69 1.23 1.76 1.80 1.18 1.22 2.40 3.09 2.34 2.25 2.62 2.41 2.87 3.25 2.49
0.57 0.61 0.94 0.79 0.55 0.70 0.84 0.83 0.59 1.07 1.14 1.62 2.24 2.45 1.87 0.94 1.18 1.04 1.24 0.48 0.42 0.82 0.30 0.28 0.16 0.96 0.64 1.53 0.38 1.67 0.83 0.97 1.32 1.31 1.47 2.26 2.30 3.26 3.29 2.85 2.74 3.17 3.19 3.29
0.56 0.50 0.54 0.64 0.60 0.57 0.51 0.55 1.28 1.09 1.63 1.55 1.78 1.26 0.90 0.59 0.56 0.76 0.76 0.10 0.18 1.04 0.23 0.60 1.42 1.72 1.83 2.00 1.97 2.23 2.18 2.15 2.10 1.81 1.93 2.89 2.65 4.13 2.19 2.14 2.49 2.58 3.66 2.41
0.49 0.43 0.48 0.47 0.41 0.22 0.31 0.57 0.34 0.40 1.30 0.80 1.04 1.48 0.61 1.23 1.70 0.24 0.25 1.75 1.80 3.74 2.70 1.50 2.21 1.92 2.09 2.59 2.47 2.77 2.52 2.73 2.67 2.94 1.46 2.77 4.04 2.85 2.22 3.23 1.93 2.53 2.77 2.40
0.53 0.57 0.52 0.58 0.33 0.57 0.32 0.37 0.29 0.31 0.26 0.26 0.20 0.13 0.12 0.27 1.34 0.68 1.17 1.13 1.97 1.25 1.57 2.00 2.07 2.35 3.08 3.20 2.89 2.86 2.80 2.40 2.68 3.10 2.17 3.27 2.94 4.24 3.64 2.70 3.11 3.31 3.27 2.87
0.45 0.53 0.52 0.41 0.42 0.38 0.37 0.32 0.42 0.45 0.33 0.91 0.55 2.12 1.56 0.88 0.77 0.73 1.10 1.72 0.85 1.85 1.05 2.74 3.59 3.57 3.31 2.30 2.61 2.63 1.97 1.43 2.04 2.00 2.33 2.28 2.25 1.81 2.24 2.06 2.85 3.65 4.55 4.98
0.47 0.38 0.39 0.34 0.29 0.31 0.27 0.22 0.53 0.66 1.04 1.60 1.35 1.40 0.86 1.49 1.90 1.52 2.31 2.34 2.29 2.56 2.63 3.26 2.82 2.72 1.64 2.67 2.19 1.89 1.77 1.84 2.76 1.46 2.65 3.09 2.90 4.02 3.54 3.62 4.19 4.64 3.86 3.30
SL_Ratio
nan nan nan nan nan nan nan nan 2.8 nan nan nan nan nan nan nan nan nan nan nan nan nan nan nan nan nan nan nan nan nan nan nan nan nan nan nan nan nan nan nan nan nan nan nan
nan nan nan nan nan nan nan nan nan nan nan nan nan nan nan nan nan nan nan nan nan nan nan nan nan nan nan nan nan nan nan nan nan nan nan nan nan nan nan nan nan nan nan nan
3.7 nan nan 3.9 nan nan nan nan nan nan nan nan nan nan nan nan nan nan nan nan nan nan nan nan nan nan nan nan nan nan nan nan nan nan nan nan nan nan nan nan nan nan nan nan
3.6 3.8 5.1 4.1 nan nan nan nan nan nan nan nan nan nan nan nan nan nan nan nan nan nan nan nan nan nan nan nan nan nan nan nan nan nan nan nan nan nan nan nan nan nan nan nan
4.1 4.4 3.8 nan nan nan nan nan nan nan nan nan nan nan nan nan nan nan nan nan nan nan nan nan nan nan nan nan nan nan nan nan nan nan nan nan nan nan nan nan nan nan nan nan
4.2 4.8 4.1 nan nan nan nan 2.9 nan nan nan nan nan 5.0 nan nan nan nan nan nan nan nan nan nan nan nan nan nan nan nan nan nan nan nan nan nan nan nan nan nan nan nan nan nan
3.4 4.1 3.1 nan nan nan 4.4 4.3 nan nan nan nan nan nan nan nan nan nan nan nan nan nan nan nan nan nan nan nan nan nan nan nan nan nan nan nan nan nan nan nan nan nan 3.0 2.0
3.7 3.8 4.0 nan nan 3.6 3.3 nan nan nan nan nan nan nan nan nan nan nan nan nan nan nan nan nan nan nan nan nan nan nan nan nan nan nan nan nan nan nan nan nan nan 4.7 4.2 3.9
3.8 3.3 nan nan nan nan nan nan nan nan nan nan nan nan nan nan nan nan nan nan nan nan nan nan nan nan nan nan nan nan nan nan nan nan nan nan nan nan nan 0.0 3.2 4.6 4.0 4.1
3.6 nan nan nan nan nan nan nan nan nan nan nan nan nan nan nan nan nan nan nan nan nan nan nan nan nan nan nan nan nan nan nan nan nan nan 5.0 10.0 5.0 2.9 2.9 3.6 4.5 4.5 4.5
nan nan nan nan nan nan nan nan nan nan nan nan nan nan nan nan nan nan nan nan nan nan nan nan nan nan nan nan nan nan nan nan 2.2 3.2 4.6 5.1 5.3 5.4 3.9 4.8 3.9 4.8 5.3 5.5
3.8 nan nan nan nan nan nan nan nan nan nan nan nan nan nan nan nan nan nan nan nan nan 5.6 6.2 nan nan nan 6.7 5.5 5.4 4.6 4.6 4.7 4.3 4.7 6.1 6.5 6.6 nan nan nan nan nan 4.5
nan nan nan nan nan nan nan nan nan nan nan nan nan nan nan nan nan nan 0.0 nan 5.3 5.3 5.9 6.2 5.9 5.9 6.2 5.9 6.0 6.0 6.3 5.7 5.1 4.6 5.8 6.1 6.2 6.2 6.9 6.7 nan nan nan nan
nan nan nan nan nan nan nan nan nan nan nan nan nan nan nan nan nan 10.0 5.0 2.5 4.2 4.3 6.1 6.2 6.2 6.4 5.7 5.5 5.5 5.8 5.7 3.0 4.5 4.4 4.7 4.9 5.4 5.8 6.2 6.6 6.9 6.8 nan nan
nan nan nan nan nan nan nan nan nan nan nan nan nan 2.5 3.3 10.0 6.7 7.5 5.0 3.3 3.4 4.5 5.2 5.3 5.8 6.6 5.6 5.6 6.3 6.3 5.7 5.9 6.0 6.0 5.8 5.6 5.7 5.8 5.9 6.1 6.5 6.6 6.2 5.5
nan nan nan nan nan nan nan nan nan nan nan nan nan nan 10.0 7.1 8.7 9.2 8.8 8.3 4.7 6.1 7.2 5.4 6.5 7.5 6.2 5.6 6.1 6.9 7.0 3.7 5.7 6.6 6.3 6.0 5.7 5.7 6.0 6.1 6.3 6.3 6.7 7.0
nan nan nan nan nan nan nan nan nan 5.6 nan 10.0 7.5 8.3 7.2 7.1 8.1 9.4 10.1 8.5 5.8 5.9 6.4 7.4 8.7 8.3 8.1 8.0 7.9 8.0 8.2 7.9 3.0 6.9 6.5 6.0 5.6 5.7 5.9 6.1 6.3 6.3 6.5 6.2
3.8 4.4 5.0 nan nan 5.0 7.5 nan nan 5.0 8.1 8.0 6.0 5.0 5.3 5.5 8.5 8.7 8.5 7.5 7.1 8.1 9.5 9.4 9.1 8.7 8.8 8.8 8.8 7.9 7.2 6.9 6.0 5.6 5.5 5.4 5.6 5.3 5.8 6.0 6.1 6.4 6.5 6.2
5.5 5.1 4.6 5.7 6.0 6.5 6.8 7.3 7.2 7.6 5.4 5.9 6.1 7.1 6.8 6.9 8.9 9.7 9.6 7.8 7.8 9.9 10.6 9.8 3.0 6.6 10.1 8.8 5.7 6.0 5.5 5.0 5.0 5.2 5.0 3.2 5.5 5.5 6.3 6.2 6.2 6.1 6.4 6.7
6.4 6.3 6.6 6.6 6.9 7.8 7.8 7.7 7.0 8.0 7.9 7.7 7.0 7.3 9.1 8.4 8.1 8.0 8.4 9.7 10.8 10.2 10.3 10.4 10.3 10.5 10.2 5.4 3.2 4.8 4.5 4.6 4.8 4.8 5.2 5.3 5.8 6.0 6.3 3.2 6.5 6.3 6.2 6.4
6.7 6.4 6.8 7.1 7.7 6.8 6.8 7.1 7.9 9.4 9.4 8.1 7.7 7.7 8.3 8.6 7.9 7.2 8.4 10.0 12.0 10.6 10.1 4.0 7.6 6.0 4.3 4.0 3.5 4.4 4.6 4.8 4.9 5.2 5.3 5.4 5.5 5.9 6.3 5.7 5.8 5.7 6.0 6.1
7.4 7.8 7.4 7.8 8.3 8.9 8.5 8.9 9.2 8.1 8.6 8.0 7.6 7.5 7.5 10.0 8.4 8.2 7.3 9.1 10.1 3.0 5.9 5.3 4.8 3.1 3.2 3.1 4.4 4.4 4.7 4.7 5.1 5.2 5.4 5.3 5.8 6.1 6.4 6.4 6.4 6.0 5.8 5.8
8.3 8.5 8.5 8.3 8.3 9.9 9.5 9.2 7.5 7.3 7.4 7.6 7.5 7.8 7.7 9.1 8.8 7.7 8.2 11.9 4.7 3.2 4.2 4.4 3.1 3.0 3.0 4.4 4.4 4.6 4.8 5.0 5.1 5.3 5.3 5.5 5.8 6.2 7.1 7.0 6.7 6.5 6.2 6.3
8.7 8.9 9.3 9.3 9.3 9.7 9.7 10.9 10.8 11.0 7.3 8.1 7.6 7.0 7.6 6.4 5.3 5.0 4.5 3.0 3.0 3.8 4.2 4.3 3.8 3.0 3.0 4.7 5.1 5.2 5.1 5.4 5.7 6.1 6.1 3.2 6.0 6.7 6.9 7.0 7.5 6.9 6.6 6.5
9.0 8.9 9.0 8.9 10.2 9.9 10.9 11.4 11.2 11.6 11.5 11.3 11.4 10.7 5.6 4.3 5.0 4.9 4.5 4.5 3.2 3.8 4.6 3.2 3.0 3.0 5.1 5.2 5.5 5.9 6.0 6.5 6.5 6.5 6.8 6.2 6.2 6.3 6.5 7.2 7.7 7.0 7.2 6.8
10.1 9.9 10.0 10.6 9.8 9.6 9.5 9.3 8.8 8.8 6.3 5.3 5.4 5.1 5.0 5.0 4.8 4.7 4.7 3.7 4.8 3.2 4.9 4.9 5.1 5.2 5.3 5.7 5.8 5.9 6.4 6.5 6.9 7.2 7.5 7.2 7.0 7.1 7.6 7.7 7.8 7.2 6.9 6.5
9.6 5.4 9.6 9.9 10.3 9.5 8.2 6.2 5.4 5.8 4.5 5.3 5.7 5.3 5.5 5.4 5.2 4.3 3.5 5.1 5.1 5.1 5.1 5.0 5.1 3.9 5.8 5.7 6.0 6.4 6.8 6.7 3.9 7.5 8.4 7.9 8.0 7.5 7.8 7.6 7.5 6.7 7.2 7.6